Location: Bovenkerk
(52.2915°N, 4.8336°E)
Time: 00:54:09
(UTC+00:00)

Meteor 2-3 Rocket - Pass Details

Date: 09 April 2020
Orbit: 842 x 885 km, 81.2° (Epoch: 30 May)

Event Time Altitude Azimuth Distance (km) Brightness Sun altitude
Rises 21:46:07 0° 345° (NNW) 3,485 8.1 -24.8°
Reaches altitude 10° 21:48:35 10° 344° (NNW) 2,537 7.2 -25.0°
Maximum altitude 21:54:20 73° 261° (W) 910 3.8 -25.5°
Enters shadow 21:55:21 58° 202° (SSW) 1,001 3.8 -25.5°
